AirNav   Duncan Aviation - Near you to keep you flying
 
 613 users online  

I83 Salem Municipal Airport
Salem, Indiana, USA

GOING TO SALEM?


FAA INFORMATION EFFECTIVE 21 APRIL 2022

Location

FAA Identifier: I83
Lat/Long: 38-36-14.6725N 086-09-08.1058W
38-36.244542N 086-09.135097W
38.6040757,-86.1522516
(estimated)
Elevation: 839.9 ft. / 256 m (estimated)
Variation: 04W (2015)
From city: 2 miles W of SALEM, IN
Time zone: UTC -4 (UTC -5 during Standard Time)
Zip code: 47167

Airport Operations

Airport use: Open to the public
Control tower: no
ARTCC: INDIANAPOLIS CENTER
FSS: TERRE HAUTE FLIGHT SERVICE STATION
NOTAMs facility: HUF (NOTAM-D service available)
Attendance: IREG
Wind indicator: lighted
Segmented circle: no
Lights: ACTVT PAPI RWY 08; MIRL RWY 08/26 - CTAF. MIRL RWY 08/26 PRESET LOW INTST TO INCR INTST - CTAF.

Airport Communications

CTAF/UNICOM: 123.0
WX AWOS-3 at BFR (20 nm NW): 119.125 (812-275-8306)
  • UNICOM NOT RGRLY MNTRD.

Nearby radio navigation aids

VOR radial/distance  VOR name  Freq  Var
OOMr148/38.9HOOSIER VORTAC110.2002W

 
NDB name  Hdg/Dist  Freq  Var  ID
GODMAN351/39.639603WGOI --. --- ..

Airport Services

Fuel available: 100LL
100LL:FUEL AVBL H24 WITH CREDIT CARD.
Parking: buoy and tiedowns
Airframe service: NONE
Powerplant service: NONE

Runway Information

Runway 8/26

Dimensions: 3000 x 75 ft. / 914 x 23 m
Surface: asphalt, in good condition
Weight bearing capacity: 
Single wheel: 30.0
Double wheel: 60.0
Runway edge lights: medium intensity
RUNWAY 8  RUNWAY 26
Latitude: 38-36.191155N38-36.297912N
Longitude: 086-09.442703W086-08.827420W
Elevation: 839.9 ft.816.4 ft.
Traffic pattern: leftleft
Markings: nonprecision, in good conditionnonprecision, in good condition
Visual slope indicator: 2-light PAPI on left (3.00 degrees glide path)
Runway end identifier lights: yesyes

Airport Ownership and Management from official FAA records

Ownership: Publicly-owned
Owner: SALEM BOARD OF AVN CMSNRS
334 N AIRPORT BLVD
SALEM, IN 47167
Phone (812) 883-5858
Manager: LOWELL DEPOY
334 N AIRPORT BLVD
SALEM, IN 47167
Phone (812) 896-4775

Airport Operational Statistics

Aircraft based on the field: 14
Single engine airplanes: 9
Multi engine airplanes: 1
Helicopters: 2
Ultralights: 2
    
Aircraft operations: avg 105/week *
73% local general aviation
27% transient general aviation
* for 12-month period ending 31 December 2018

Additional Remarks

FOR CD CTC LOUISVILLE APCH AT 502-375-7499

Instrument Procedures

There are no published instrument procedures at I83.

Some nearby airports with instrument procedures:

KBFR - Virgil I Grissom Municipal Airport (20 nm NW)
KSER - Freeman Municipal Airport (22 nm NE)
KFRH - French Lick Municipal Airport (23 nm W)
KJVY - Clark Regional Airport (24 nm SE)
KLOU - Bowman Field Airport (32 nm SE)
 
Loc | Ops | Rwys | IFR | FBO | Links
Com | Nav | Svcs | Stats | Notes
Area around I83 (Salem Municipal Airport)
 
Road maps at: MapQuest Bing Google
 
Aerial photo
WARNING: Photo may not be current or correct
Aerial photo of I83 (Salem Municipal Airport)
Photo by Phil Brooks
Photo taken 12-Sep-2019
looking west.

Do you have a better or more recent aerial photo of Salem Municipal Airport that you would like to share? If so, please send us your photo.

 
Sectional chart

 
Airport distance calculator
Flying to Salem Municipal Airport? Find the distance to fly.

From to I83

Sunrise and sunset
Times for 18-May-2022
 Local
(UTC-4)
 Zulu
(UTC)
Morning civil twilight06:0110:01
Sunrise06:3110:31
Sunset20:5100:51
Evening civil twilight21:2101:21

Current date and time
Zulu (UTC)  18-May-2022 06:37:20
Local (UTC-4)  18-May-2022 02:37:20
 
METAR
KFRH 
23nm W 
180615Z AUTO 00000KT 10SM CLR 18/10 A2998 RMK AO1
KJVY 
24nm SE 
180615Z AUTO 00000KT 10SM CLR 13/13 A2998 RMK AO2 PWINO
KSDF 
32nm SE 
180556Z 13005KT 10SM BKN250 19/13 A2999 RMK AO2 SLP149 T01940128 10267 20194 58005
KLOU 
33nm SE 
180553Z AUTO 00000KT 10SM CLR 17/13 A2999 RMK AO2 SLP150 T01720128 10267 20172 58003
KIMS 
34nm E 
180615Z AUTO 00000KT 10SM CLR 15/13 A3001 RMK AO2
KBMG 
39nm NW 
180553Z AUTO 00000KT 10SM CLR 17/11 A2997 RMK AO2 SLP143 T01720111 10261 20167 58008
KBAK 
41nm N 
180145Z 00000KT 10SM CLR 19/09 A2999 RMK LAST
KHNB 
43nm SW 
180556Z AUTO 15003KT 10SM 18/14 A2998 RMK AO2 SLP150 T01830139 10250 20178 58006 $
KFTK 
44nm S 
180556Z AUTO 00000KT 10SM CLR 16/14 A2999 RMK AO2 SLP153 T01550139 10244 20148 57005 $
KDCY 
46nm W 
180615Z AUTO 19006KT 10SM CLR 18/13 A2997 RMK AO2 LTG DSNT W T01790133
TAF
KSDF 
32nm SE 
180526Z 1806/1912 VRB04KT P6SM BKN200 FM181000 VRB03KT P6SM BKN200 FM181300 19009KT P6SM OVC100 FM181800 22012G18KT P6SM OVC050 PROB30 1818/1824 4SM -TSRA BKN050CB FM190000 25009KT P6SM OVC100 PROB30 1900/1906 4SM -TSRA BKN050CB FM190600 24005KT P6SM BKN100
KBMG 
39nm NW 
180520Z 1806/1906 12003KT P6SM VCSH BKN090 FM181400 18008KT 6SM -SHRA BR OVC080 FM181800 19010G18KT 6SM SHRA BR VCTS OVC050CB FM182000 21009KT P6SM VCTS OVC035CB FM182200 24010G18KT P6SM VCTS BKN045CB FM190000 26007KT P6SM BKN090 AMD LTD TO CLD VIS AND WIND TIL 181300
NOTAMs
Click for the latest NOTAMs
NOTAMs are issued by the DoD/FAA and will open in a separate window not controlled by AirNav.

 

 
 

FBO, Fuel Providers, and Aircraft Ground Support

  
 Business Name 
 
 Contact 
 
 Services / Description 
 
Fuel Prices
 
Comments
  
Salem Municipal Airport 812-883-4265
812-883-4264
[web site]
[email]
Aviation fuel, Hangar leasing / sales, Public telephone, Internet access, Restrooms

More info about Salem Municipal Airport
independent
100LL
SS $5.18 
 Updated 05-May-2022
 
   write
SS=Self service
Update Fuel Prices
 

Would you like to see your business listed on this page?

 If your business provides an interesting product or service to pilots, flight crews, aircraft, or users of the Salem Municipal Airport, you should consider listing it here.  To start the listing process, click on the button below
 
Add a business
 

Other Pages about Salem Municipal Airport

cityofsalemin.com/...
 
Update a link
 
Copyright © AirNav, LLC. All rights reserved. Privacy Policy  Contact